User: anonymous   Login
Location: Unspecified
(0.0000°N, 0.0000°E)
Time: 02:55:51
(UTC+00:00)
Language:

GALILEO 9 (205) - Orbit

View from above orbital plane
View from above orbital plane
View from above satellite
View from above satellite

Ground track
Ground track

The orbit data is extracted from the following two-line orbital elements,

1 40889U 15045A   17230.78186607 -.00000047 +00000-0 +00000-0 0  9992
2 40889 056.9678 310.4276 0000901 321.7374 038.3158 01.70475049012044
Epoch (UTC): 18 August 2017 18:45:53
Eccentricity: 0.0000901
inclination: 56.9678°
perigee height: 23219 km
apogee height: 23224 km
right ascension of ascending node: 310.4276°
argument of perigee: 321.7374°
revolutions per day: 1.70475049
mean anomaly at epoch: 38.3158°
orbit number at epoch: 1204

The dashed part of the orbit path shows where the satellite is in the earth's shadow,  

DLR